Regional Weather Roundup
Issued by NWS State College, PA

Home | Current Version | Previous Version | Text Only | Print | Product List | Glossary On
Versions: 1 2 3 4 5 6 7 8 9 10 11 12 13 14 15 16 17 18 19 20 21 22 23 24 25 26 27 28 29 30 31 32 33 34 35 36 37 38 39 40 41 42 43 44 45 46 47 48 49 50
000
ASUS41 KCTP 021803
RWRCTP

REGIONAL WEATHER ROUNDUP
NATIONAL WEATHER SERVICE STATE COLLEGE PA
200 PM EDT TUE SEP 02 2014

Note: "fair" indicates few or no clouds below 12,000 feet with no
significant weather and/or obstructions to visibility.

* = STATION THAT DOES NOT REPORT PRECIPITATION /E.G. RAIN...SNOW...ETC/
    THUNDER OR FOG.

PAZ002>004-007>009-013>016-020>023-029>032-021900-
WESTERN PENNSYLVANIA

CITY           SKY/WX    TMP DP  RH WIND       PRES   REMARKS
ERIE           HVY RAIN  69  65  86 SW13G23   29.89R VSB 1/2
MEADVILLE      CLOUDY    76  66  71 SW9       29.89F
FRANKLIN*      CLOUDY    75  66  73 S9        29.92F
NEW CASTLE     MOCLDY    80  70  71 VRB7      29.89F
BEAVER COUNTY  CLOUDY    79  68  69 S8        29.91F
BUTLER*        PTSUNNY   79  68  69 S8G16     29.92F
PITTSBURGH INT PTSUNNY   80  69  69 SW13      29.91F
PITTSBURGH     PTSUNNY   79  69  71 S13       29.92F
INDIANA*       MOSUNNY   79  70  73 SW12      29.97F
LATROBE        PTSUNNY   81  73  78 SW12      29.94F
WASHINGTON CO* PTSUNNY   81  72  74 SW9G17    29.93F
$$

PAZ004>006-010>012-017>019-024>028-033>037-041-042-045-046-049>053-021900-
CENTRAL PENNSYLVANIA

CITY           SKY/WX    TMP DP  RH WIND       PRES   REMARKS
BRADFORD       CLOUDY    74  63  68 SW5       29.93F
DUBOIS         PTSUNNY   76  66  71 SW8       29.93F
CLEARFIELD     CLOUDY    78  67  68 S7        29.94F
JOHNSTOWN      CLOUDY    77  67  71 VRB7      29.99F
ALTOONA        MOSUNNY   82  69  64 SW8       29.96F
STATE COLLEGE  CLOUDY    81  68  65 SW12      29.93F
WILLIAMSPORT   PTSUNNY   88  65  46 SW12      29.88S
SELINSGROVE    MOSUNNY   87  70  56 VRB3      29.91F
FT INDIANTOWN  PTSUNNY   87  70  58 W10       29.92F
CAPITAL CITY   PTSUNNY   87  68  52 W7        29.91F
HARRISBURG     PTSUNNY   87  68  52 W8        29.90F
YORK           MOSUNNY   88  71  57 W8        29.92F
$$

PAZ038>040-043-044-047-048-054-055-060>062-067>071-021900-
EASTERN PENNSYLVANIA

CITY           SKY/WX    TMP DP  RH WIND       PRES   REMARKS
SCRANTON       MOSUNNY   87  66  49 W10G17    29.90F
MOUNT POCONO   SUNNY     82  63  52 SW14G20   29.97F
ALLENTOWN      MOSUNNY   90  68  48 SW10G21   29.90F
QUAKERTOWN*    PTCLDY    88  72  58 MISG      29.93F
READING        PTSUNNY   90  68  48 SW13      29.90F
LANCASTER      PTSUNNY   87  68  52 W10       29.92F
COATESVILLE    PTCLDY    86  72  62 W8        29.95F
POTTSTOWN      MOSUNNY   87  69  54 SW7G17    29.93F
BLUE BELL      MOSUNNY   90  70  51 W6        29.90F HX  95
DOYLESTOWN     PTSUNNY   87  68  52 SW7       29.90F
WILLOW GROVE   NOT AVBL
NORTH PHILA    MOSUNNY   90  68  48 W9        29.91F
PHILADELPHIA   MOSUNNY   91  69  48 SW13      29.90F HX  96
$$



USA.gov is the U.S. government's official web portal to all federal, state and local government web resources and services.